This is the latest recevied weather packets stored in our database for station/object KG7DQI-13. If no packets are shown the sender has not sent any weather packets the latest 10 day(s).
| Time | Temp. | Humidity | Pressure | Rain* | Wind** | Luminosity | Snow |
|---|---|---|---|---|---|---|---|
| 1777505625 | 18.33° C | 29% | 918.3 hPa | 0 mm | - | 39 W/m² | - |
| 1777504753 | 18.33° C | 30% | 918.2 hPa | 0 mm | - | 40 W/m² | - |
| 1777503842 | 18.89° C | 31% | 918.4 hPa | 0 mm | - | 638 W/m² | - |
| 1777502905 | 19.44° C | 31% | 918.5 hPa | 0 mm | - | 675 W/m² | - |
| 1777501984 | 18.89° C | 34% | 918.6 hPa | 0 mm | - | 714 W/m² | - |
| 1777501060 | 18.89° C | 33% | 918.7 hPa | 0 mm | - | 738 W/m² | - |
| 1777500159 | 18.89° C | 33% | 918.8 hPa | 0 mm | - | 772 W/m² | - |
| 1777499270 | 18.33° C | 33% | 919 hPa | 0 mm | - | 798 W/m² | - |
| 1777498395 | 17.78° C | 35% | 919.1 hPa | 0 mm | - | 814 W/m² | - |
| 1777497450 | 17.78° C | 34% | 919.1 hPa | 0 mm | - | 837 W/m² | - |
| 1777496509 | 17.78° C | 35% | 919.2 hPa | 0 mm | - | 854 W/m² | - |
| 1777495567 | 17.22° C | 37% | 919.2 hPa | 0 mm | - | 868 W/m² | - |
| 1777494678 | 16.67° C | 36% | 919.4 hPa | 0 mm | - | 877 W/m² | - |
| 1777493734 | 16.11° C | 33% | 919.4 hPa | 0 mm | - | 882 W/m² | - |
| 1777492858 | 15.56° C | 37% | 919.5 hPa | 0 mm | - | 882 W/m² | - |
| 1777491918 | 15.56° C | 36% | 919.7 hPa | 0 mm | - | 884 W/m² | - |
| 1777491007 | 15.56° C | 41% | 919.8 hPa | 0 mm | - | 874 W/m² | - |
| 1777490078 | 15° C | 41% | 920.1 hPa | 0 mm | - | 867 W/m² | - |
| 1777489145 | 15° C | 42% | 920 hPa | 0 mm | - | 853 W/m² | - |
| 1777488272 | 13.89° C | 44% | 920 hPa | 0 mm | - | 838 W/m² | - |
| 1777487346 | 13.33° C | 47% | 920.1 hPa | 0 mm | - | 817 W/m² | - |
| 1777486441 | 12.78° C | 47% | 920.3 hPa | 0 mm | - | 800 W/m² | - |
| 1777485524 | 12.78° C | 47% | 920.3 hPa | 0 mm | - | 773 W/m² | - |
| 1777484663 | 12.22° C | 53% | 920.5 hPa | 0 mm | - | 749 W/m² | - |
| 1777483803 | 11.67° C | 54% | 920.5 hPa | 0 mm | - | 715 W/m² | - |
* Rain latest hour (hover to see other rain measurements)
** Current wind speed in m/s (hover to see current wind gust speed)